Nashua, NH

8:46 AM EDT on October 20, 2017 (GMT -0400)
Boire

Weather History for KASH - August, 2014

Change the Weather History Date:

Tuesday, August 26, 2014

  Actual Average Record
Temperature  
Mean Temperature 72 °F -  
Max Temperature 86 °F 79 °F 97 °F (1948)
Min Temperature 59 °F 53 °F 38 °F (1963)
Cooling Degree Days 8    
Growing Degree Days 22 (Base 50)    
Moisture  
Dew Point 62 °F    
Average Humidity 69    
Maximum Humidity 97    
Minimum Humidity 37    
Precipitation  
Precipitation 0.00 in - - ()
Sea Level Pressure  
Sea Level Pressure 30.84 in    
Wind  
Wind Speed 0 mph (North)    
Max Wind Speed 4 mph    
Max Gust Speed -    
Visibility 10 miles    
Events Rain    
Averages and records for this station are not official NWS values.
T = Trace of Precipitation, MM = Missing Value Source: NWS Daily Summary

Daily Weather History Graph

Daily Weather History Graph

Search for Another Location

Airport or City:

Trip Planner

Search our weather history database for the weather conditions in past years. The results will help you decide how hot, cold, wet, or windy it might be!

Date:

Astronomy

Aug. 26, 2014 Rise Set
Actual Time 6:04 AM EDT 7:30 PM EDT
Civil Twilight 5:34 AM EDT 8:00 PM EDT
Nautical Twilight 4:59 AM EDT 8:35 PM EDT
Astronomical Twilight 4:21 AM EDT 9:13 PM EDT
Moon 7:04 AM EDT (8/26) 7:47 PM EDT (8/26)
Length of Visible Light 14h 25m
Length of Day
13h 26m
New Moon, 1% of the Moon is Illuminated
Aug 26
New Moon
Sep 2
First Quarter
Sep 8
Full
Sep 15
Last Quarter
Sep 24
New

Hourly Weather History & Observations

Time (EDT) Temp. Heat Index Dew Point Humidity Pressure Visibility Wind Dir Wind Speed Gust Speed Precip Events Conditions
12:51 AM 63.9 °F - 61.9 °F 93% 30.87 in 10.0 mi Calm Calm - N/A   Clear
1:51 AM 63.0 °F - 61.0 °F 93% 30.87 in 10.0 mi Calm Calm - N/A   Clear
2:51 AM 61.9 °F - 61.0 °F 97% 30.87 in 10.0 mi Calm Calm - N/A   Clear
3:51 AM 61.9 °F - 59.9 °F 93% 30.86 in 10.0 mi Calm Calm - N/A   Clear
4:51 AM 61.0 °F - 59.0 °F 93% 30.87 in 10.0 mi Calm Calm - N/A   Clear
5:51 AM 59.0 °F - 56.8 °F 93% 30.87 in 10.0 mi Calm Calm - N/A   Clear
6:51 AM 61.0 °F - 59.0 °F 93% 30.89 in 10.0 mi Calm Calm - N/A   Clear
7:51 AM 63.9 °F - 59.9 °F 87% 30.90 in 10.0 mi Calm Calm - N/A   Clear
8:51 AM 70.0 °F - 61.9 °F 75% 30.89 in 10.0 mi Calm Calm - N/A   Clear
9:51 AM 74.8 °F - 63.0 °F 66% 30.89 in 10.0 mi Calm Calm - N/A   Clear
10:51 AM 79.9 °F - 63.9 °F 58% 30.88 in 10.0 mi Calm Calm - N/A   Clear
11:51 AM 82.9 °F 84.0 °F 63.0 °F 51% 30.87 in 10.0 mi Calm Calm - 0.00 in   Clear
12:51 PM 86.0 °F 86.1 °F 61.0 °F 43% 30.85 in 10.0 mi Calm Calm - 0.00 in Rain Light Rain
1:51 PM 84.9 °F 85.4 °F 61.9 °F 46% 30.84 in 10.0 mi Calm Calm - N/A   Scattered Clouds
2:51 PM 84.9 °F 86.1 °F 63.9 °F 49% 30.82 in 10.0 mi Calm Calm - N/A   Mostly Cloudy
3:51 PM 86.9 °F 86.5 °F 59.9 °F 40% 30.80 in 10.0 mi Calm Calm - N/A   Partly Cloudy
4:51 PM 86.9 °F 85.9 °F 57.9 °F 37% 30.79 in 10.0 mi Variable 3.5 mph - N/A   Clear
5:51 PM 86.9 °F 87.0 °F 61.0 °F 42% 30.77 in 10.0 mi Calm Calm - N/A   Clear
6:51 PM 81.9 °F 83.2 °F 63.9 °F 54% 30.76 in 10.0 mi Calm Calm - N/A   Clear
7:51 PM 75.9 °F - 64.9 °F 69% 30.76 in 10.0 mi Calm Calm - N/A   Clear
8:51 PM 72.9 °F - 63.9 °F 73% 30.77 in 10.0 mi Calm Calm - N/A   Clear
9:51 PM 72.9 °F - 61.9 °F 68% 30.77 in 10.0 mi Calm Calm - N/A   Clear
11:51 PM 70.9 °F - 64.9 °F 81% 30.76 in 10.0 mi Calm Calm - N/A   Clear